Forsyth, Georgia
Current Conditions -  °F | °C
As of 8:55 AM on Friday 31 Oct 2014 (Local Time) from KOPN Reporting Station
Clear Clear  
Wind Chill: 46°   Ceiling: Unl
Heat Index: 46°   Visibility: 10mi
Dew Point: 43°   Wind: 3mph
Humidity: 87%   Direction: 340°NNW
Pressure: 29.96"   Gusts: NA
Location:  33.03°N, 83.94°W
Report Text: KOPN 311255Z AUTO 34003KT 10SM CLR 08/06 A2996 RMK AO2
Loading
Personal Weather Stations






























Interactive Weather Map
Tropical Storm Tracking
New forecast layout! Learn more

10-Day Weather Forecast

Advertisements
Track Severe Weather on mobile